Regional Weather Roundup
Issued by NWS Jackson, KY

Home | Current Version | Previous Version | Text Only | Print | Product List | Glossary Off
Versions: 1 2 3 4 5 6 7 8 9 10 11 12 13 14 15 16 17 18 19 20 21 22 23 24 25 26 27 28 29 30 31 32 33 34 35 36 37 38 39 40 41 42 43 44 45 46 47 48 49 50

000
ASUS43 KJKL 070410
RWRJKL

EAST KENTUCKY HOURLY WEATHER ROUNDUP
NATIONAL WEATHER SERVICE JACKSON KY
1100 PM EST SAT FEB 06 2016

NOTE: "FAIR" INDICATES FEW OR NO CLOUDS BELOW 12,000 FEET WITH
NO SIGNIFICANT WEATHER AND/OR OBSTRUCTIONS TO VISIBILITY.

* THESE REPORTS ARE NOT UNDER NWS QUALITY CONTROL AND MAY NOT
  REPORT WEATHER SUCH AS PRECIPITATION AND FOG.

KYZ079-080-083-085-087-088-110-112-115-119-120-070500
...EASTERN KENTUCKY...

CITY           SKY/WX    TMP DP  RH WIND       PRES   REMARKS
JACKSON        CLEAR     38  20  48 SW3       30.24F
LONDON         CLEAR     31  24  75 CALM      30.26S
SOMERSET*      CLEAR     32  25  74 CALM      30.29R
MONTICELLO*    CLEAR     25  22  88 CALM      30.29S
WILLIAMSBURG*  CLEAR     34  25  69 CALM      30.27S
MIDDLESBORO*   PTCLDY    32  27  80 CALM      30.28S
HARLAN APT*      N/A     34  23  64 CALM      30.25F
HAZARD APT*    CLEAR    N/A N/A N/A CALM      30.25S
BLACK MTN*       N/A     28  19  69 N2          N/A
BIG SANDY*     CLEAR     40  22  48 CALM      30.24S
MOREHEAD APT*  CLEAR     37  23  56 CALM      30.26F
$$

KYZ035-036-041-042-044-050-067-078-099-070500
...CENTRAL KENTUCKY...

CITY           SKY/WX    TMP DP  RH WIND       PRES   REMARKS
MT STERLING*   CLEAR     30  27  86 SW3       30.26S
DANVILLE*      CLEAR     30  25  80 SW3       30.27S
RICHMOND*      CLEAR     34  21  60 SW3       30.25S
LEXINGTON      CLEAR     32  23  69 S7        30.24F WCI  26
FRANKFORT      CLEAR     28  22  78 CALM      30.24S
$$

KYZ091>093-OHZ055-061-077-WVZ005-015-034-035-042-070500
...SOUTHERN OHIO/WEST VIRGINIA...

CITY           SKY/WX    TMP DP  RH WIND       PRES   REMARKS
COVINGTON      CLEAR     33  23  66 S6        30.22F WCI  28
COLUMBUS       CLEAR     30  18  60 CALM      30.21F
DAYTON         CLEAR     35  23  61 S8        30.20F WCI  29
WILMINGTON     CLEAR     30  23  75 S6        30.21F WCI  24
HUNTINGTON       N/A     37  22  54 CALM      30.24F
CHARLESTON       N/A     36  21  54 CALM      30.23F
PINEVILLE*       N/A     32  24  72 MISG      30.27F
BECKLEY          N/A     35  16  45 CALM      30.20F
$$

VAZ002-007-008-TNZ017-027-036-066-071-070500
...SOUTHWEST VIRGINIA/EAST TENNESSEE...

CITY           SKY/WX    TMP DP  RH WIND       PRES   REMARKS
BRISTOL        PTCLDY    28  22  78 CALM      30.25F
KNOXVILLE      CLOUDY    37  22  54 CALM      30.26F
OAK RIDGE      CLOUDY    36  27  69 CALM      30.28F
CROSSVILLE     PTCLDY    34  21  59 CALM      30.25F
NASHVILLE      CLEAR     36  24  62 S5        30.29S WCI  32
$$

...KEY TO REMARKS...
VSB - VISIBILITY IN MILES
WCI - WIND CHILL INDEX
HX  - HEAT INDEX

$$




USA.gov is the U.S. government's official web portal to all federal, state and local government web resources and services.